This is the latest recevied weather packets stored in our database for station/object KY4LEX. If no packets are shown the sender has not sent any weather packets the latest 10 day(s).
| Time | Temp. | Humidity | Pressure | Rain* | Wind** | Luminosity | Snow |
|---|---|---|---|---|---|---|---|
| 1778073618 | 10° C | 95% | 1016.4 hPa | 0 mm | - | 55 W/m² | - |
| 1778073315 | 10° C | 95% | 1016.5 hPa | 0 mm | - | 55 W/m² | - |
| 1778073012 | 10° C | 96% | 1016.5 hPa | 0 mm | - | 42 W/m² | - |
| 1778072708 | 10° C | 97% | 1016.2 hPa | 0 mm | - | 93 W/m² | - |
| 1778072406 | 10° C | 97% | 1016.4 hPa | 0 mm | - | 73 W/m² | - |
| 1778072104 | 10° C | 97% | 1016.4 hPa | 0 mm | - | 75 W/m² | - |
| 1778071801 | 10° C | 98% | 1016.1 hPa | 0 mm | - | 73 W/m² | - |
| 1778071499 | 9.44° C | 98% | 1016.1 hPa | 0 mm | - | 72 W/m² | - |
| 1778071197 | 9.44° C | 98% | 1015.9 hPa | 0 mm | - | 52 W/m² | - |
| 1778070895 | 9.44° C | 97% | 1015.9 hPa | 0 mm | - | 28 W/m² | - |
| 1778070592 | 9.44° C | 97% | 1015.8 hPa | 0 mm | - | 28 W/m² | - |
| 1778070289 | 9.44° C | 97% | 1016 hPa | 0 mm | - | 24 W/m² | - |
| 1778069987 | 9.44° C | 97% | 1015.9 hPa | 0 mm | - | 22 W/m² | - |
| 1778069684 | 9.44° C | 97% | 1015.6 hPa | 0 mm | - | 25 W/m² | - |
| 1778069380 | 9.44° C | 97% | 1015.5 hPa | 0 mm | - | 23 W/m² | - |
| 1778069078 | 9.44° C | 97% | 1015.2 hPa | 0 mm | - | 24 W/m² | - |
| 1778068775 | 10° C | 97% | 1015.2 hPa | 0 mm | - | 23 W/m² | - |
| 1778068473 | 10° C | 97% | 1015.4 hPa | 0 mm | - | 18 W/m² | - |
| 1778068171 | 10° C | 97% | 1015.2 hPa | 0 mm | - | 16 W/m² | - |
| 1778067868 | 10° C | 97% | 1015.1 hPa | 0 mm | - | 21 W/m² | - |
| 1778067567 | 10° C | 97% | 1015.2 hPa | 0 mm | - | 18 W/m² | - |
| 1778067265 | 10° C | 97% | 1015.2 hPa | 0 mm | - | 16 W/m² | - |
| 1778066961 | 10° C | 97% | 1015.2 hPa | 0 mm | - | 12 W/m² | - |
| 1778066659 | 10° C | 97% | 1014.9 hPa | 0 mm | - | 12 W/m² | - |
| 1778066356 | 10° C | 97% | 1014.5 hPa | 0 mm | - | 13 W/m² | - |
* Rain latest hour (hover to see other rain measurements)
** Current wind speed in m/s (hover to see current wind gust speed)